Wind_Speed
23 23 24 25 26 26 26 24 23 22 23 23 23 23 23 23 22 23 22 21 21 20 19 19 18 18 18 17 17 17 16 16 15 14 14 14 13 12 11 10 9 9 8 7 7 6 6 6 5
24 25 26 27 28 28 27 25 25 25 25 25 25 25 25 25 24 24 23 23 23 22 22 21 21 20 19 19 18 18 18 17 17 16 15 15 15 14 13 12 11 10 9 8 8 7 6 6 6
26 26 27 28 29 29 28 27 27 27 27 27 27 27 27 27 26 25 25 24 24 24 23 23 23 22 21 21 20 19 19 19 19 18 17 16 16 15 14 13 12 11 10 10 9 8 8 7 7
27 27 28 30 30 28 29 28 28 29 29 29 29 29 29 28 28 27 26 26 26 25 25 25 24 24 23 23 22 21 21 21 20 20 19 18 17 16 15 15 13 13 12 11 10 10 9 8 8
28 29 30 30 29 29 29 29 29 30 30 30 31 31 30 30 30 29 29 29 28 28 27 26 26 26 25 24 23 23 23 22 22 21 21 20 19 18 17 16 15 14 13 12 12 11 10 9 9
29 30 31 30 29 29 29 29 30 31 32 32 32 33 32 32 32 32 31 31 30 29 29 28 27 27 27 26 26 25 24 24 23 23 22 21 20 20 19 18 16 15 15 14 13 12 12 11 11
30 31 31 30 30 30 30 30 31 31 32 33 33 34 34 33 33 33 33 33 32 31 31 30 30 29 29 28 27 27 26 25 25 24 24 23 22 21 21 20 19 18 16 16 15 14 14 14 13
31 32 32 32 32 32 32 32 32 32 32 34 35 35 35 34 34 34 34 34 33 33 32 32 31 31 30 30 29 28 28 27 27 26 25 25 24 23 23 22 21 20 19 18 17 16 16 15 15
31 32 33 33 33 33 33 33 32 33 33 34 35 36 36 36 36 36 35 35 35 35 34 34 33 33 32 32 31 30 29 29 28 27 27 27 26 25 25 24 23 22 22 20 19 18 18 17 17
31 32 32 33 34 34 34 33 33 34 34 35 35 36 37 37 37 37 36 36 37 36 36 35 35 35 34 34 33 33 32 31 30 29 28 28 28 27 27 26 25 24 23 22 22 21 20 19 18
31 32 31 32 34 34 34 34 33 34 35 36 36 36 37 37 37 38 38 37 37 38 37 37 36 36 36 36 35 35 34 33 32 31 30 30 30 29 28 27 27 26 25 24 23 23 22 22 21
30 30 31 32 34 35 35 34 34 35 35 36 37 37 38 39 39 39 39 39 38 39 39 38 38 37 37 37 37 36 36 35 34 33 32 32 31 31 31 29 28 27 27 26 25 25 24 23 22
29 29 31 32 33 34 35 35 35 34 35 36 37 38 39 40 40 40 40 40 39 39 40 39 39 39 39 38 38 38 37 36 36 35 34 34 33 33 32 32 30 29 28 28 27 26 26 25 24
28 29 30 31 33 34 34 35 35 34 36 37 38 39 40 40 41 41 41 41 41 41 41 41 40 39 40 39 39 38 38 38 38 37 36 36 36 35 33 33 33 31 30 30 29 29 28 28 26
27 28 29 30 31 33 34 34 34 34 36 37 38 39 40 40 42 43 43 43 42 42 42 41 41 40 41 41 40 39 39 39 39 38 37 37 36 36 35 34 34 33 33 32 32 31 30 30 29
26 27 28 29 30 32 34 34 34 34 35 37 38 39 40 41 42 44 44 45 44 43 43 43 42 42 42 42 42 41 40 40 40 40 39 37 37 37 36 36 35 35 34 34 33 33 33 32 31
26 26 26 27 29 31 33 33 34 34 35 36 38 39 40 40 42 44 45 45 46 45 44 44 44 43 43 42 42 42 42 42 41 41 40 39 38 38 37 37 37 37 36 35 34 34 34 33 33
26 27 27 28 28 29 31 31 32 34 35 36 37 39 40 40 41 43 44 45 46 47 46 45 44 44 44 44 42 43 43 42 43 42 42 41 40 39 39 38 38 38 38 38 37 36 35 35 35
25 27 28 28 28 28 29 30 31 32 34 36 37 38 40 40 41 42 43 45 46 47 47 46 46 44 45 45 44 43 43 43 44 43 42 42 41 41 40 40 39 39 39 39 38 38 36 36 36
25 26 27 28 27 27 28 30 29 29 32 34 36 37 39 40 41 41 42 43 45 47 48 47 46 45 45 45 45 44 43 44 44 44 43 43 43 43 42 42 41 40 41 41 40 40 38 37 37
25 25 25 26 27 27 28 29 27 27 29 31 34 36 38 38 40 41 42 43 44 45 47 47 47 47 46 45 45 45 45 45 44 44 44 44 44 43 44 43 43 42 42 42 42 41 40 39 38
24 24 25 25 25 25 25 27 26 25 26 28 31 33 35 37 38 39 42 43 44 44 45 46 46 47 47 47 47 46 46 46 45 46 45 45 45 45 44 45 44 44 43 43 42 42 41 41 40
23 23 23 24 24 25 25 25 25 25 25 25 28 31 33 36 38 39 41 42 43 44 44 46 47 46 47 47 46 47 47 47 47 47 47 46 46 46 45 46 46 46 45 45 44 43 43 42 41
21 22 22 22 24 25 24 24 25 24 24 25 26 28 30 34 37 39 41 42 43 43 43 45 45 46 47 47 47 47 47 47 47 47 48 48 47 46 46 46 47 47 46 46 46 45 44 44 43
21 21 21 20 21 24 24 24 23 22 22 23 24 25 27 31 34 38 40 41 42 43 44 45 45 46 47 48 48 48 48 48 47 47 47 48 48 48 46 46 47 47 47 46 46 46 46 45 44
20 20 20 21 21 22 23 22 21 22 22 22 23 25 26 29 32 35 38 40 41 42 44 44 45 47 48 48 48 48 49 49 48 48 48 48 48 48 48 47 47 48 47 47 47 48 47 46 46
20 20 20 21 22 22 22 21 20 20 21 21 22 23 25 28 31 32 34 38 40 41 43 45 46 47 49 49 50 48 47 48 49 48 48 49 49 49 48 48 48 49 49 49 49 48 48 48 47
20 20 20 20 21 21 22 21 21 20 19 20 21 22 24 26 29 31 32 35 38 39 41 42 44 46 48 48 48 47 46 46 47 47 48 48 49 50 49 49 50 50 50 50 50 50 50 49 49
20 20 20 20 21 22 22 21 21 22 22 23 23 23 25 27 28 29 31 33 35 37 39 41 43 44 45 45 46 47 46 46 48 48 48 49 50 51 51 51 50 51 51 51 52 51 51 50 50
21 21 20 20 20 21 22 22 21 22 22 22 24 24 24 26 27 27 29 32 35 37 38 39 43 43 44 44 43 44 45 45 45 46 47 47 48 49 49 50 51 51 51 52 52 52 51 51 51
Wind_Direction
261 259 257 256 256 256 255 253 251 250 248 247 245 244 243 243 241 240 238 235 235 234 232 230 228 228 227 227 228 226 223 221 220 219 216 216 215 214 215 216 215 216 220 221 218 218 225 229 230
262 260 258 257 256 256 256 254 252 250 249 248 247 245 243 242 242 241 238 236 235 234 234 232 230 229 228 228 228 228 226 225 224 223 221 219 219 219 219 220 220 220 222 223 224 227 232 236 236
263 261 260 258 257 257 257 253 252 250 249 248 246 245 243 242 241 240 239 237 235 234 234 233 231 230 230 229 229 229 228 227 226 226 224 223 222 221 221 222 222 222 225 227 229 231 235 241 242
264 263 261 260 259 258 257 253 251 250 249 248 246 244 243 242 241 239 238 237 236 235 235 235 233 232 231 231 231 230 229 229 228 227 226 225 224 223 222 223 223 224 226 228 230 231 234 239 243
265 264 261 260 259 258 256 252 250 249 248 247 246 244 242 241 240 239 237 236 236 236 235 235 234 234 232 232 231 231 230 229 229 229 227 226 226 226 224 222 223 224 227 230 232 232 234 239 242
266 265 263 261 260 259 256 254 250 249 248 246 245 244 242 240 239 238 237 236 236 236 235 235 234 234 234 233 232 231 231 230 230 230 229 228 228 228 227 226 225 226 229 231 235 236 237 240 244
267 266 264 262 260 259 256 254 252 250 248 246 245 244 241 239 238 238 237 236 235 235 236 235 234 234 234 233 233 232 232 232 231 230 230 229 229 229 229 230 229 229 231 232 235 239 241 243 246
267 265 264 261 260 259 257 255 253 251 249 246 244 243 240 239 238 237 237 235 234 234 235 236 235 235 234 234 233 233 233 233 232 231 231 231 231 231 231 232 232 233 233 234 237 240 243 245 247
266 264 264 261 259 258 257 255 253 251 250 247 245 243 241 239 237 237 236 235 234 234 235 235 235 235 235 234 234 234 233 234 234 233 233 233 234 233 234 235 235 235 235 237 240 243 245 247 249
266 264 264 261 258 257 256 255 253 251 249 247 245 243 241 239 237 237 236 235 234 234 235 235 236 235 235 235 235 235 235 235 235 235 234 234 235 236 236 236 236 236 238 240 241 244 246 248 250
267 265 262 259 257 257 256 255 253 252 250 248 246 244 241 239 237 237 236 236 235 234 234 235 235 235 235 235 235 236 235 236 236 236 235 236 236 236 237 238 238 238 239 241 243 245 246 247 249
269 265 262 261 260 258 256 254 253 253 251 249 247 245 243 240 238 237 236 235 235 234 234 234 235 235 234 234 234 235 235 236 237 237 237 237 236 237 237 239 239 239 240 242 244 245 246 247 248
270 266 264 264 262 259 256 254 254 254 252 250 248 246 244 241 238 237 237 236 235 234 233 234 235 236 235 234 234 234 234 235 237 237 238 238 239 239 239 238 239 240 240 242 243 244 246 246 248
272 269 266 266 264 260 257 255 255 254 252 250 248 246 244 242 239 238 237 235 235 235 234 235 236 235 234 233 233 233 233 234 235 237 238 238 239 239 239 240 239 240 240 242 244 245 246 247 248
276 272 269 267 265 262 259 256 255 255 253 251 249 247 243 242 240 238 237 236 235 235 234 234 235 235 236 235 235 235 234 234 236 237 238 239 240 239 239 239 240 241 241 242 244 245 246 247 248
278 275 271 268 266 263 261 259 257 256 254 252 249 247 244 243 240 238 237 235 234 234 235 234 235 236 236 236 236 236 235 236 237 238 239 239 239 240 240 240 240 241 242 242 244 245 246 247 249
279 276 273 270 268 266 263 263 260 257 256 253 250 248 246 244 241 239 237 235 233 233 234 235 235 235 235 235 235 235 236 237 238 238 239 239 240 240 240 240 241 242 242 243 244 245 247 247 248
281 277 276 273 270 268 267 264 262 258 256 255 252 249 247 244 241 238 236 235 233 232 233 234 235 235 236 236 235 235 236 237 239 240 240 240 241 241 241 240 241 243 244 245 246 246 246 248 249
283 280 278 274 271 270 270 267 264 262 258 255 253 250 247 244 240 236 236 234 233 232 232 233 233 234 236 237 236 236 236 238 239 240 241 241 241 241 243 243 243 245 245 246 247 247 247 249 250
287 284 280 276 274 272 272 268 266 265 261 258 254 251 248 243 238 234 234 233 233 232 232 232 234 234 236 238 237 237 237 238 239 241 242 242 243 243 243 244 246 247 247 246 247 248 248 249 250
288 285 281 279 275 274 274 271 268 267 264 261 257 253 247 242 238 235 234 233 232 233 233 233 234 235 235 237 239 238 238 238 239 241 241 242 243 244 245 245 245 247 248 248 247 248 249 249 250
289 285 282 280 279 277 275 275 268 268 266 262 257 252 246 242 239 236 234 233 232 233 233 233 235 236 236 237 239 240 239 239 240 241 243 243 244 245 246 246 246 247 247 247 246 247 248 249 250
295 290 284 280 279 279 277 278 271 267 265 262 258 253 247 242 239 236 234 233 233 234 235 234 234 235 236 237 239 241 241 241 241 242 242 244 245 245 245 246 245 246 246 246 246 247 247 247 248
302 297 290 285 280 280 278 279 277 272 266 262 258 253 247 242 239 236 234 233 234 236 236 235 234 235 237 238 239 240 241 242 243 243 242 243 245 245 246 246 245 246 246 247 247 247 247 248 248
304 302 298 294 288 283 280 279 278 274 267 264 260 253 249 244 240 237 236 236 236 237 237 236 236 237 237 238 239 240 241 242 243 244 244 245 246 246 247 246 245 246 247 247 247 247 248 248 248
308 304 299 294 289 287 283 279 277 275 270 268 262 256 252 246 242 240 239 238 238 238 237 236 238 238 238 238 239 240 241 242 243 245 245 247 246 246 247 247 247 247 247 246 247 249 249 250 249
308 305 302 296 293 289 287 282 279 275 271 268 267 263 256 250 247 244 242 240 240 239 237 238 240 240 240 240 241 241 242 244 245 246 247 246 246 247 248 248 248 248 248 248 249 249 249 250 251
307 307 308 303 298 295 291 285 282 277 274 270 268 264 259 254 250 250 247 244 242 242 240 240 241 241 241 241 241 241 242 244 245 247 248 248 248 248 247 248 248 249 249 250 250 250 250 250 251
305 304 306 304 299 295 293 290 284 280 277 274 270 266 263 259 257 254 251 246 243 243 243 243 242 243 242 242 242 243 244 246 246 248 249 249 249 249 249 249 250 250 250 250 249 249 250 250 250
308 305 304 302 301 294 292 290 288 285 281 275 271 268 266 263 262 259 255 249 246 245 244 244 243 243 243 242 243 245 246 247 248 249 250 250 250 250 250 250 251 251 251 250 249 249 249 249 250
Height
5818 5818 5819 5820 5820 5820 5821 5823 5824 5826 5826 5827 5828 5829 5831 5832 5835 5838 5838 5838 5839 5840 5842 5843 5844 5846 5847 5848 5849 5850 5852 5853 5854 5855 5856 5857 5858 5859 5860 5861 5861 5862 5862 5863 5863 5864 5864 5864 5864
5812 5813 5813 5813 5813 5813 5816 5817 5819 5820 5821 5822 5823 5824 5825 5827 5829 5831 5832 5834 5835 5837 5838 5839 5841 5842 5844 5845 5846 5848 5849 5850 5852 5853 5854 5855 5856 5857 5858 5859 5859 5860 5861 5862 5862 5862 5863 5863 5863
5806 5806 5806 5806 5806 5807 5809 5811 5812 5813 5814 5816 5817 5818 5820 5821 5823 5825 5827 5829 5831 5833 5834 5836 5837 5839 5840 5842 5843 5845 5846 5847 5849 5850 5851 5852 5854 5855 5856 5857 5857 5858 5859 5860 5860 5861 5861 5862 5862
5799 5798 5798 5798 5798 5801 5802 5803 5804 5805 5807 5809 5810 5811 5813 5816 5818 5820 5821 5824 5826 5828 5829 5831 5833 5835 5836 5838 5839 5841 5843 5844 5846 5847 5848 5850 5851 5852 5853 5854 5855 5856 5857 5858 5859 5859 5860 5860 5861
5790 5790 5790 5789 5791 5793 5793 5795 5796 5797 5799 5801 5802 5804 5806 5809 5811 5813 5815 5818 5820 5822 5824 5826 5828 5830 5832 5834 5835 5837 5839 5840 5842 5843 5845 5847 5848 5849 5850 5851 5853 5854 5855 5856 5856 5857 5858 5858 5859
5782 5781 5781 5782 5783 5785 5785 5786 5788 5789 5790 5792 5794 5796 5799 5801 5804 5806 5808 5811 5813 5816 5818 5820 5823 5825 5827 5829 5831 5833 5835 5836 5838 5840 5841 5843 5845 5846 5847 5849 5850 5851 5852 5853 5854 5855 5856 5856 5857
5774 5772 5773 5774 5775 5776 5777 5778 5779 5780 5781 5784 5786 5788 5791 5794 5796 5799 5801 5804 5807 5809 5812 5814 5817 5819 5821 5823 5826 5828 5830 5832 5834 5835 5837 5839 5841 5842 5844 5845 5847 5848 5849 5850 5851 5852 5853 5854 5854
5764 5764 5764 5765 5766 5767 5768 5769 5770 5771 5772 5775 5776 5779 5782 5786 5788 5791 5794 5797 5800 5803 5805 5808 5811 5813 5815 5818 5820 5823 5825 5827 5829 5831 5833 5835 5837 5838 5840 5841 5843 5844 5846 5847 5848 5849 5850 5851 5851
5754 5754 5754 5756 5757 5757 5758 5759 5761 5762 5763 5765 5767 5770 5773 5776 5779 5782 5786 5789 5792 5796 5798 5801 5804 5807 5809 5812 5814 5817 5819 5821 5823 5825 5828 5830 5832 5834 5835 5837 5839 5840 5842 5843 5844 5846 5847 5847 5848
5744 5744 5746 5747 5746 5746 5748 5749 5751 5752 5754 5756 5758 5760 5763 5767 5770 5774 5777 5781 5784 5788 5791 5794 5796 5800 5802 5805 5808 5810 5813 5815 5817 5820 5822 5824 5826 5828 5830 5832 5834 5836 5837 5839 5840 5841 5842 5843 5844
5733 5734 5736 5735 5735 5736 5737 5739 5741 5742 5744 5746 5749 5752 5754 5757 5761 5765 5768 5772 5775 5779 5783 5786 5789 5792 5795 5798 5801 5804 5806 5809 5811 5813 5816 5818 5820 5823 5825 5827 5829 5831 5832 5834 5835 5837 5838 5839 5840
5724 5725 5725 5725 5725 5726 5727 5729 5731 5732 5735 5737 5739 5741 5744 5748 5751 5755 5759 5763 5767 5770 5774 5777 5781 5784 5787 5790 5793 5796 5799 5802 5804 5807 5809 5811 5814 5816 5819 5821 5823 5825 5827 5829 5830 5832 5833 5834 5835
5716 5716 5715 5715 5715 5716 5717 5719 5720 5722 5724 5726 5728 5731 5734 5737 5741 5745 5749 5754 5757 5761 5765 5769 5772 5775 5778 5782 5785 5788 5791 5794 5797 5800 5802 5804 5807 5809 5812 5814 5817 5819 5821 5823 5825 5826 5828 5829 5830
5708 5707 5707 5706 5706 5706 5707 5708 5710 5713 5713 5715 5717 5720 5723 5726 5731 5735 5739 5743 5748 5752 5755 5759 5762 5765 5769 5773 5776 5780 5783 5786 5789 5792 5794 5797 5799 5802 5805 5807 5810 5813 5815 5817 5818 5820 5822 5823 5825
5699 5699 5698 5697 5697 5697 5697 5699 5701 5702 5703 5704 5706 5709 5712 5715 5719 5724 5728 5733 5737 5742 5746 5750 5753 5756 5759 5764 5767 5771 5774 5777 5781 5784 5786 5789 5791 5794 5797 5800 5803 5805 5808 5810 5812 5814 5815 5817 5819
5692 5691 5690 5689 5688 5688 5690 5690 5691 5691 5692 5694 5695 5698 5701 5704 5708 5712 5717 5722 5727 5731 5735 5740 5743 5747 5750 5754 5758 5762 5765 5769 5772 5775 5778 5781 5783 5786 5789 5792 5795 5798 5800 5802 5805 5806 5808 5810 5812
5684 5683 5682 5681 5680 5679 5679 5680 5681 5681 5682 5683 5685 5687 5690 5693 5696 5700 5705 5711 5716 5721 5725 5729 5733 5737 5741 5744 5749 5753 5756 5760 5763 5766 5769 5772 5775 5778 5781 5783 5786 5789 5792 5794 5797 5799 5801 5803 5805
5677 5676 5674 5673 5672 5671 5670 5670 5670 5670 5671 5672 5674 5676 5678 5681 5685 5689 5693 5699 5704 5709 5714 5719 5722 5727 5731 5734 5739 5743 5747 5750 5754 5757 5760 5764 5766 5769 5772 5774 5777 5780 5783 5786 5788 5791 5793 5795 5797
5670 5668 5667 5665 5664 5663 5661 5661 5661 5661 5661 5662 5664 5665 5668 5671 5674 5678 5682 5687 5693 5698 5702 5708 5713 5717 5721 5725 5729 5734 5738 5741 5744 5748 5751 5754 5757 5760 5763 5766 5768 5771 5774 5777 5780 5782 5784 5787 5788
5663 5661 5659 5657 5655 5654 5653 5652 5652 5652 5652 5652 5654 5655 5657 5660 5663 5668 5672 5677 5682 5687 5692 5697 5702 5707 5711 5715 5720 5724 5728 5731 5735 5738 5741 5744 5747 5750 5753 5757 5759 5762 5764 5767 5770 5773 5775 5778 5780
5656 5654 5652 5650 5648 5646 5645 5644 5644 5643 5643 5643 5644 5645 5647 5650 5654 5658 5663 5667 5671 5676 5681 5686 5692 5696 5701 5705 5709 5713 5717 5721 5724 5728 5731 5734 5737 5740 5743 5746 5749 5752 5755 5757 5760 5763 5766 5768 5770
5650 5648 5645 5643 5641 5639 5638 5636 5637 5636 5635 5635 5635 5636 5638 5641 5645 5649 5653 5657 5662 5667 5671 5676 5681 5685 5690 5695 5699 5703 5707 5711 5715 5718 5721 5723 5727 5730 5733 5736 5739 5742 5744 5747 5750 5753 5756 5758 5761
5644 5641 5639 5637 5634 5633 5631 5629 5630 5629 5628 5628 5627 5628 5630 5632 5635 5639 5643 5648 5652 5657 5660 5665 5670 5674 5679 5684 5688 5693 5697 5700 5704 5707 5711 5713 5716 5719 5723 5725 5728 5731 5734 5737 5740 5742 5745 5748 5750
5638 5636 5633 5630 5628 5626 5625 5623 5622 5622 5621 5621 5620 5620 5621 5623 5626 5630 5634 5638 5642 5646 5649 5654 5659 5664 5669 5673 5678 5682 5686 5689 5693 5696 5700 5703 5705 5709 5711 5714 5717 5720 5723 5726 5729 5732 5734 5737 5740
5634 5631 5627 5623 5621 5620 5619 5616 5617 5616 5615 5614 5614 5614 5614 5616 5618 5621 5625 5628 5632 5636 5640 5644 5649 5654 5658 5662 5667 5671 5674 5678 5681 5685 5688 5691 5695 5698 5701 5703 5706 5709 5712 5715 5718 5721 5724 5726 5729
5628 5625 5622 5618 5616 5614 5612 5611 5612 5610 5609 5608 5608 5608 5608 5609 5611 5613 5616 5619 5623 5627 5631 5634 5638 5643 5647 5652 5656 5660 5663 5667 5670 5674 5678 5680 5683 5686 5689 5692 5695 5698 5701 5704 5707 5710 5713 5715 5718
5623 5620 5617 5614 5610 5608 5606 5606 5606 5604 5603 5602 5602 5602 5602 5603 5604 5606 5608 5611 5614 5617 5621 5624 5628 5632 5636 5640 5644 5648 5652 5656 5660 5663 5666 5669 5672 5674 5678 5681 5684 5687 5689 5692 5696 5699 5701 5704 5707
5618 5615 5612 5609 5605 5603 5602 5601 5600 5599 5598 5597 5597 5596 5596 5597 5597 5598 5600 5602 5605 5608 5611 5614 5618 5621 5625 5629 5633 5637 5641 5645 5648 5651 5654 5657 5660 5663 5666 5669 5672 5675 5678 5680 5684 5687 5689 5692 5695
5614 5611 5607 5604 5601 5599 5596 5598 5595 5594 5592 5592 5591 5591 5590 5590 5591 5591 5592 5594 5596 5599 5602 5604 5608 5611 5615 5618 5622 5626 5630 5633 5637 5639 5642 5645 5648 5651 5653 5656 5659 5662 5665 5668 5671 5674 5677 5680 5682
5609 5606 5603 5601 5597 5594 5592 5594 5590 5588 5587 5586 5585 5585 5584 5584 5584 5584 5585 5586 5588 5590 5593 5595 5598 5602 5605 5608 5612 5616 5619 5622 5625 5627 5630 5632 5635 5638 5641 5643 5646 5649 5652 5655 5658 5661 5664 5667 5670